Location: Newark
(41.0400°S, 62.7845°W)
Time: 23:16:56
(UTC+00:00)

Envisat - Pass Details

Date: 31 October 2021
Orbit: 764 x 766 km, 98.2° (Epoch: 28 November)

Event Time Altitude Azimuth Distance (km) Brightness Sun altitude
Rises 07:03:49 0° 58° (ENE) 3,233 6.5 -19.6°
Reaches altitude 10° 07:06:49 10° 77° (ENE) 2,316 6.0 -19.1°
Maximum altitude 07:10:08 18° 118° (ESE) 1,849 6.0 -18.7°
Drops below altitude 10° 07:13:27 10° 158° (SSE) 2,335 6.4 -18.2°
Sets 07:16:28 0° 176° (S) 3,271 6.9 -17.7°
